Location: Bercu
(50.5214°N, 3.2788°E)
Time: 13:47:20
(UTC+00:00)

Daily predictions for brighter satellites

Satellite Brightness Start Highest point End
(mag) Time Altitude Azimuth Time Altitude Azimuth Time Altitude Azimuth
Cosmos 2344 4.4 20:26:33 10° NW 20:34:59 69° NE 20:46:35 10° SE
Cosmos 2154 Rocket 4.3 20:37:14 10° N 20:43:21 54° ENE 20:49:23 10° SSE
COSMOS 2406 4.2 20:39:13 10° SSE 20:43:59 28° ESE 20:48:46 10° NE
Spot 2 Rocket 3.7 20:39:44 10° SSE 20:44:44 60° ENE 20:49:47 10° N
Cosmos 1025 Rocket 4.2 20:41:35 10° SSW 20:45:43 46° WNW 20:49:54 10° N
SPOT 5 2.7 20:50:22 10° SSE 20:54:41 68° ENE 20:59:00 10° N
Cosmos 2084 Rocket 3.3 20:52:01 10° NW 20:55:54 73° NE 20:59:55 10° SE
Cosmos 1703 3.3 20:53:02 10° S 20:56:50 64° E 21:00:40 10° NNE
RESURS DK-1 2.8 20:52:46 10° NW 20:56:51 57° WSW 21:00:53 10° SSE
Cosmos 1452 Rocket 3.5 20:54:24 10° SSW 20:59:40 83° ESE 21:04:57 10° NNE
Cosmos 1833 Rocket 2.8 20:54:24 10° S 20:59:52 56° ESE 21:05:22 10° NE
CZ-4B R/B 2.3 20:58:31 10° N 21:01:18 42° WNW 21:04:02 10° SW
Terra 2.1 20:56:44 10° SSE 21:01:24 57° ENE 21:06:05 10° N
FALCON 9 DEB 3.4 21:02:07 10° WNW 21:05:22 62° NNE 21:08:36 10° E
Helios 1A Rocket 2.9 21:01:23 10° SSE 21:05:28 80° ENE 21:09:36 10° NNW
Cosmos 1110 Rocket 4.1 21:00:29 10° S 21:05:39 62° ESE 21:10:55 10° NNE
Cosmos 2322 Rocket 4.2 21:03:19 10° NNW 21:07:28 20° NE 21:11:37 10° E
ERS-1 Rocket 3.0 21:02:55 10° SSE 21:07:57 80° ENE 21:13:00 10° NNW
Resurs 01 Rocket 3.5 21:04:54 10° SSW 21:08:40 27° W 21:12:27 10° NW
Cosmos 2228 3.0 21:06:29 10° N 21:10:44 86° W 21:14:58 10° S
Cosmos 2058 Rocket 4.1 21:07:35 10° N 21:11:36 32° ENE 21:15:19 12° SE
Cosmos 2184 Rocket 4.2 21:08:27 10° NNW 21:14:37 74° W 21:20:49 10° S
Cosmos 1825 4.3 21:15:26 10° ESE 21:17:00 12° E 21:18:35 10° ENE
Lacrosse 5 4.1 21:14:24 10° W 21:17:03 14° WSW 21:19:42 10° SSW
Cosmos 1408 3.9 21:16:14 13° SE 21:18:28 23° E 21:21:14 10° NE
Cosmos 2278 4.4 21:13:29 10° NNW 21:19:01 47° NE 21:24:23 11° SE
Cosmos 968 Rocket 3.7 21:16:46 10° NNW 21:21:59 67° ENE 21:26:36 13° SE
Cosmos 1328 3.9 21:22:10 10° S 21:26:06 59° E 21:30:03 10° NNE
USA 276 1.9 21:24:20 10° W 21:27:22 83° S 21:30:25 10° E
H-2A R/B 4.5 21:26:32 10° N 21:30:10 25° WNW 21:33:50 10° WSW
SJ 16-02 3.6 21:28:10 10° N 21:30:59 16° NE 21:33:47 10° E
Cosmos 1867 3.6 21:26:14 10° NW 21:31:46 83° NE 21:36:30 14° SE
Cosmos 2082 Rocket 2.6 21:28:19 10° S 21:33:43 45° ESE 21:39:07 10° NE
USA 267 4.0 21:31:12 10° ENE 21:36:42 28° SE 21:42:12 10° S
Cosmos 1606 Rocket 3.8 21:35:08 10° NNW 21:39:26 68° W 21:43:23 12° S
ARIANE 5 R/B 2.6 21:35:43 14° SSE 21:39:34 87° WSW 21:44:01 10° NNW
GP-B 3.7 21:36:12 10° NNE 21:40:26 42° E 21:43:35 17° SSE
Cosmos 2341 Rocket 4.1 21:35:25 10° N 21:41:45 68° ENE 21:47:01 15° SSE
Cosmos 2360 Rocket 4.1 21:39:07 10° NNW 21:43:36 23° NE 21:48:02 10° E
Meteor 1-21 Rocket 4.4 21:38:48 10° SSW 21:44:24 76° WNW 21:50:09 10° N
Cosmos 192 4.3 21:43:59 10° SSW 21:48:51 74° ESE 21:53:46 10° NNE
Okean 1-7 Rocket 4.2 21:58:40 19° SSE 22:01:24 40° E 22:05:38 10° NNE
SAR-Lupe-1 4.2 21:57:57 10° NNE 22:01:29 54° ESE 22:03:39 21° S
Cosmos 1726 Rocket 4.1 21:57:55 10° NNW 22:02:08 51° W 22:05:41 14° SSW
Cosmos 1892 2.6 22:02:06 19° S 22:04:37 68° E 22:08:23 10° NNE
Cosmos 2181 Rocket 4.1 22:07:21 17° S 22:12:11 65° E 22:18:23 10° NNE
USA 234 3.5 22:06:22 10° ESE 22:12:55 74° NNE 22:19:28 10° WNW
Cosmos 1633 3.9 22:12:09 19° ESE 22:13:20 23° E 22:16:08 10° NE
Cosmos 1697 Rocket 4.2 22:12:09 10° NW 22:16:45 27° WSW 22:21:16 10° SSW
Cosmos 1980 Rocket 2.8 22:11:23 10° NW 22:16:52 49° WSW 22:20:52 18° S
SL-16 R/B 2.6 22:11:22 10° NNW 22:17:00 57° NE 22:21:23 17° SE
Cosmos 1486 Rocket 4.0 22:12:17 10° NNW 22:17:33 86° ENE 22:21:05 21° SSE
Cosmos 1992 Rocket 4.2 22:15:19 18° S 22:19:04 55° ESE 22:24:11 10° NNE
Cosmos 1812 Rocket 4.2 22:15:12 10° N 22:19:30 44° ENE 22:22:08 21° SE
Cosmos 2219 Rocket 4.3 22:16:22 10° NNW 22:20:37 21° NE 22:24:52 10° E
Cosmos 1932 4.5 22:14:40 10° SSW 22:20:46 63° ESE 22:27:03 10° NE
COSMOS 2406 3.8 22:22:14 10° SW 22:27:56 61° NW 22:33:39 10° NNE
Cosmos-2242 3.7 22:24:48 10° N 22:28:52 43° ENE 22:31:12 22° SE
ATLAS 5 CENTAUR R/B 1.4 22:29:23 22° SSW 22:31:33 51° SE 22:35:39 10° NE
Cosmos 1869 3.2 22:29:10 10° NNW 22:33:04 80° W 22:35:09 27° S
Cosmos 807 4.2 22:30:19 10° N 22:33:25 65° ENE 22:34:25 36° SSE
Cosmos 1602 Rocket 3.9 22:32:11 25° SSE 22:34:21 49° E 22:38:33 10° NNE
In-Cosmos 22 Rocket 4.1 22:30:23 17° S 22:34:45 89° WNW 22:40:12 10° NNE
ERS-2 4.2 22:35:02 10° ENE 22:36:54 14° E 22:37:40 13° ESE
Meteor 1-27 4.3 22:33:19 10° NNW 22:38:51 70° W 22:42:35 21° S
Terra 3.8 22:35:53 10° SW 22:39:30 21° W 22:43:08 10° NW
FALCON 9 DEB 3.4 22:38:27 10° WNW 22:41:34 43° SSW 22:42:17 36° S
ASTEX 1 3.9 22:36:53 10° N 22:41:48 57° WNW 22:45:50 15° SSW
ALOS 2 3.1 22:39:48 23° SE 22:42:20 52° ENE 22:46:37 10° N
Cosmos 1833 Rocket 4.4 22:39:04 10° WSW 22:44:06 33° NW 22:49:10 10° NNE
Cosmos 1354 Rocket 4.1 22:40:27 10° NNW 22:45:47 76° ENE 22:49:06 23° SSE
BREEZE-M DEB (TANK) 3.5 22:44:51 10° W 22:47:56 75° S 22:59:14 10° ESE
Cosmos 2058 Rocket 4.5 22:45:39 10° NNW 22:49:32 30° W 22:52:35 15° SW
ADEOS Rocket 3.7 22:45:43 20° SSE 22:51:11 73° ENE 22:58:56 10° NNW
Cosmos 1825 2.4 22:49:40 23° SSW 22:51:50 62° WNW 22:55:34 10° N
Cosmos 2322 Rocket 2.3 22:46:49 10° NNW 22:52:31 74° ENE 22:56:24 21° SE
Cosmos 1408 4.3 22:50:12 11° SW 22:53:02 26° WNW 22:56:02 10° NNW
Cosmos 1503 Rocket 4.0 22:50:14 10° NNW 22:55:34 78° WSW 22:58:35 26° SSE
Cosmos 1626 Rocket 3.7 22:54:43 22° SSW 22:57:27 68° WNW 23:01:48 10° N
USA 276 2.5 23:00:06 10° W 23:02:50 40° SSW 23:02:50 40° SSW
Cosmos 1777 Rocket 4.1 22:58:17 10° NNW 23:03:36 72° ENE 23:06:53 23° SE
Cosmos 2333 Rocket 3.1 23:02:09 10° NNW 23:07:41 45° NE 23:12:52 12° ESE
Cosmos 1825 Rocket 3.9 23:08:17 29° SSE 23:10:08 50° E 23:14:21 10° NNE
SJ 16-02 1.3 23:05:43 10° NNW 23:10:11 85° WSW 23:12:19 30° SSE
Gbstr 26 Del rocket 4.0 23:11:09 27° SSE 23:11:30 28° SE 23:15:45 10° E
Cosmos 1340 Rocket 3.7 23:13:04 27° SE 23:14:23 34° E 23:18:00 10° NNE
Meteor 2-20 4.4 23:13:53 23° S 23:17:54 87° W 23:24:02 10° N
Cosmos 2082 Rocket 3.5 23:12:34 10° WSW 23:17:54 39° NW 23:23:15 10° NNE
H-2A R/B 3.4 23:14:43 10° NNE 23:18:57 82° ESE 23:20:55 31° S
USA 267 3.2 23:13:49 10° ENE 23:20:23 79° SE 23:26:57 10° SW
Cosmos 2221 3.3 23:21:49 10° N 23:26:00 43° ENE 23:28:18 23° SE
Cosmos 1606 2.8 23:22:58 10° NNW 23:26:48 65° W 23:28:16 35° SSW
Cosmos 2058 2.9 23:26:08 33° S 23:27:54 71° E 23:32:05 10° NNE
Cosmos 2360 Rocket 2.2 23:22:42 10° NNW 23:28:25 87° ENE 23:31:59 24° SSE
Cosmos 1934 Rocket 4.0 23:23:13 10° N 23:29:19 76° E 23:33:06 25° SSE
Meteor 2-2 Rocket 4.4 23:35:02 10° NNW 23:41:03 80° W 23:44:36 26° S
Cosmos 44 3.8 23:41:21 30° SSE 23:42:46 39° ESE 23:46:55 10° NE
Cosmos 1633 4.1 23:45:55 17° WSW 23:47:44 26° WNW 23:50:44 10° NNW
Cosmos 1758 Rocket 4.5 23:45:44 21° SW 23:48:17 41° WNW 23:52:29 10° N
Cosmos 2237 Rocket 4.3 23:47:57 10° NNW 23:52:38 25° NE 23:57:17 10° E
Cosmos 1339 Rocket 4.5 23:50:04 26° S 23:53:45 77° E 23:59:53 10° NNE
